Weather WX

World > North America > United States > Pennsylvania

Branchton, Pennsylvania Regional Weather

Lat: 41.07N, Lon: 79.99W
Wx Zone: PAZ014
Warning FLW WEATHER ALERT - FLASH FLOOD WATCH (More Info. Click Here) Warning
Feedback

Branchton, PA Regional Weather

Expires:201906180400;;660052
ASUS41 KCTP 180310
RWRCTP

REGIONAL WEATHER ROUNDUP
NATIONAL WEATHER SERVICE STATE COLLEGE PA
1100 PM EDT MON JUN 17 2019

Note: "fair" indicates few or no clouds below 12,000 feet with no 
significant weather and/or obstructions to visibility.

* = STATION THAT DOES NOT REPORT PRECIPITATION /E.G. RAIN...SNOW...ETC/
    THUNDER OR FOG.


PAZ002>004-007>009-013>016-020>023-029>032-180400-
WESTERN PENNSYLVANIA
  
CITY           SKY/WX    TMP DP  RH WIND       PRES   REMARKS
ERIE           FAIR      63  61  93 CALM      29.99S                  
MEADVILLE      MOCLDY    64  62  93 N5        30.00S                  
FRANKLIN*      MOCLDY    67  66  97 CALM      30.01S FOG              
NEW CASTLE     MOCLDY    67  66  97 CALM      29.99S FOG              
BEAVER COUNTY  NOT AVBL                                               
BUTLER*        FAIR      66  66 100 SE3       30.00S FOG              
PITTSBURGH INT LGT RAIN  70  68  93 E3        29.98F                  
PITTSBURGH     LGT RAIN  69  68  96 S6        29.99R                  
INDIANA*       CLOUDY    68  68 100 SW6       30.04S                  
LATROBE        RAIN      70  70 100 NE5       30.00S                  
WASHINGTON CO* MOCLDY    70  68  94 CALM      30.02  FOG              
$$


SKY/WX - Weather  TMP - Temperature  DP - Dew Point  RH - Relative Humidity
WIND - Wind Direction/Speed PRES - Barometric Pressure VSB - Visibility
WCI - Wind Chill Index E13G22 Wind - East Wind 13 mph/Gusts of 22 mph